This demonstration page uses our WeatherBlox Daily Observations layout. Learn more.

36.17497, -115.13722

Hourly Observations for February 15, 2015

Temp ( °F °C ) Dew Point ( °F °C ) Humidity (%) Winds ( mph kmh ) Pressure ( in mb ) Visibility ( mi km ) Precip ( " mm )
12:53 am 00:53 Clear 55 12.8 26 -3.3 33 33 N 5 7 30.02 1017 10 16.0934 0 0
1:53 am 01:53 Clear 53 11.7 27 -2.8 37 37 NW 3 6 30.01 1016 10 16.0934 0 0
2:53 am 02:53 Clear 54 12.2 27 -2.8 35 35 W 5 7 30 1016 10 16.0934 0 0
3:53 am 03:53 Clear 53 11.7 26 -3.3 35 35 NNE 5 7 30 1016 10 16.0934 0 0
4:53 am 04:53 Clear 54 12.2 24 -4.4 31 31 NW 10 17 30.01 1016 10 16.0934 0 0
5:53 am 05:53 Clear 53 11.7 24 -4.4 32 32 NNW 9 15 30.02 1017 10 16.0934 0 0
6:53 am 06:53 Sunny 51 10.6 26 -3.3 38 38 NW 5 7 30.04 1017 10 16.0934 0 0
7:53 am 07:53 Sunny 56 13.3 27 -2.8 33 33 Calm 30.06 1018 10 16.0934 0 0
8:53 am 08:53 Sunny 64 17.8 24 -4.4 22 22 NNE 7 11 30.07 1018 10 16.0934 0 0
9:53 am 09:53 Sunny 66 18.9 24 -4.4 20 20 S 3 6 30.06 1018 10 16.0934 0 0
10:53 am 10:53 Sunny 71 21.7 22 -5.6 16 16 VRB 3 6 30.05 1018 10 16.0934 0 0
11:53 am 11:53 Sunny 72 22.2 22 -5.6 15 15 ESE 8 13 30.02 1017 10 16.0934 0 0
12:53 pm 12:53 Sunny 74 23.3 22 -5.6 14 14 ESE 6 9 29.99 1016 10 16.0934 0 0
1:53 pm 13:53 Sunny 76 24.4 22 -5.6 13 13 SSE 5 7 29.98 1015 10 16.0934 0 0
2:53 pm 14:53 Sunny 77 25 22 -5.6 13 13 ESE 9 15 29.97 1015 10 16.0934 0 0
3:53 pm 15:53 Sunny 77 25 21 -6.1 12 12 ESE 8 13 29.97 1015 10 16.0934 0 0
4:53 pm 16:53 Sunny 74 23.3 21 -6.1 14 14 ESE 8 13 29.97 1015 10 16.0934 0 0
5:53 pm 17:53 Clear 71 21.7 21 -6.1 15 15 Calm 29.99 1016 10 16.0934 0 0
6:53 pm 18:53 Clear 66 18.9 23 -5 19 19 ESE 10 17 30.01 1016 10 16.0934 0 0
7:53 pm 19:53 Clear 67 19.4 26 -3.3 21 21 E 3 6 30.02 1017 10 16.0934 0 0
8:53 pm 20:53 Clear 64 17.8 26 -3.3 24 24 ESE 3 6 30.03 1017 10 16.0934 0 0
9:53 pm 21:53 Clear 59 15 27 -2.8 29 29 Calm 30.04 1017 10 16.0934 0 0
10:53 pm 22:53 Clear 57 13.9 29 -1.7 34 34 undefined N/A 30.03 1017 10 16.0934 0 0
11:53 pm 23:53 Clear 55 12.8 28 -2.2 35 35 Calm 30.03 1017 10 16.0934 0 0

Powered by AerisWeather